Showing default

COSMOS 1275, 12504

Orbit data source: Space-Track

COSMOS 1275, 12504 is a payload satellite owned by VMF (CIS) in LEO that was launched on Thu, 04 Jun 1981 UTC via a KOSMOS 11K65M launch vehicle from the Plesetsk Missile And Space Complex (PKMTR). Payload-class satellites include a variety of spacecraft equipped with specific instruments for various scientific and technological missions. These include communications satellites like Starlink; space stations such as the ISS; scientific satellites like the Hubble; Earth observation satellites from companies like Planet Labs, Umbra, and HawkEye 360; GPS; miniature CubeSats for education and research; and military/defense satellites.

Loading next visibility...
Identifier
12504, 1981-053A
Orbit
LEO
Last TLE update
11 hours ago
Origin
Manufacturer
Omsk Av. Zav.
Mission
Defense Navigation
Bus & Motor
KAUR-1 11F627, Unknown motor
Mass
800 kg wet, 800 kg dry
Launch date (UTC)
1981-06-04 (44 years ago)
Launch vehicle
KOSMOS 11K65M
Launch site
Plesetsk Missile And Space Complex (PKMTR)
Object type
Payload
Rocket body
Debris
Shape & HBR
Cyl, 5 m
Radar Cross Section
9.978 m², Large (>1 m²)

Expand to show TLE details & history

TLE from 11 hours ago
0 COSMOS 1275
1 12504U 81053A   25181.87243872  .00000045  00000-0  31126-4 0  9993
2 12504  82.9602 164.8585 0041206  79.0012 281.5775 13.74500758211201
Epoch: 2025-06-30T20:56Z
TLE epoch observation values (Epoch: 2025-06-30T20:56:18.705Z)
Latitude
-0°
Longitude
-68.39545°
Altitude
980.387 km
Speed
7.364 km/s
True Right ascension
10h 59m 26s
True Declination
0° 00' 00"
Sunlit
Object was in daylight at epoch
Visualization orbit readout
Latitude
-30.34597°
Longitude
115.37519°
Altitude
1,015.295 km
Speed
7.333 km/s
Apparent Right ascension
02h 32m 49s
Apparent Declination
-58° 37' 60"
Sunlit
Object is in daylight
Visualization observer readout
Local Sidereal Time
20:04:21
Azimuth
139.907° SSE
Elevation
-36.681°
Doppler factor
1
Orbital elements
Apogee altitude
1,010.928 km
Perigee altitude
950.283 km
Semi-major axis
7,358.743 km
Eccentricity
0.00412
Inclination
82.9602°
RAAN
164.8585°
Arg. of periapsis
79.0012°
True anomaly
Unknown
Mean anomaly
281.5775°
Eccentric anomaly
Unknown
Mean motion
3.43825 °/min
Orbital period
104.7 mins
BSTAR
0.000031126
Loading maneuver chart data...
Loading SW <> Apogee altitude chart data...
Loading historical data...
Loading historical data...
Loading historical data...
Loading historical data...
Loading historical data...
Loading historical data...
Loading historical data...

COSMOS 1275 Visibility forecast

Observer location: undefined°, undefined°

Span
Click to sort rows by Start time (UTC) header in descending order
Start Az.
Max El. time (UTC)
Max El. Az.
Max El.
End time (UTC)
End Az.
9 mins2025-07-01 09:45:14.281Z20.073° NNE2025-07-01 09:50:14.281Z81.014° E24.332°2025-07-01 09:54:14.281Z125.75° SE
9 mins2025-07-01 11:31:14.281Z332.24° NNW2025-07-01 11:35:14.281Z274.794° WNW34.122°2025-07-01 11:40:14.281Z205.172° SW
10 mins2025-07-01 23:15:14.281Z170.694° S2025-07-01 23:20:14.281Z92.809° ESE41.912°2025-07-01 23:25:14.281Z15.375° NNE
7 mins2025-07-02 01:03:14.281Z257.062° W2025-07-02 01:06:14.281Z290.319° WNW17.428°2025-07-02 01:10:14.281Z332.298° NNW
|